Temperature
21 22 22 22 18 16 18 19 20 22 23 25 25 25 24 23 22 23 24 24 23 23 22 22 21 21 21 21 21 21 21 21 20 20 20 20 20 20 20 19 19 19 19 19 19 19 19 19 19
21 22 22 21 17 17 18 19 20 22 24 25 25 25 24 24 24 24 24 23 23 23 22 22 21 21 21 21 21 21 21 20 20 20 20 20 20 20 20 19 19 19 19 19 19 19 19 19 19
21 21 21 16 16 17 19 20 21 23 24 25 25 25 24 23 24 24 24 23 23 22 22 22 22 21 21 21 21 21 21 20 20 20 20 20 20 20 19 19 19 19 19 19 19 19 19 19 18
21 21 20 16 18 17 19 21 21 22 24 25 24 24 23 23 24 24 24 23 23 22 22 22 22 21 21 21 21 21 20 20 20 20 20 20 20 19 19 19 19 19 19 19 19 19 18 18 18
21 21 17 16 18 18 19 21 22 22 23 24 24 23 22 23 23 24 24 23 23 22 22 21 21 21 21 21 21 20 20 20 20 20 20 20 19 19 19 19 19 19 19 19 19 18 18 18 18
21 17 15 17 18 19 19 22 22 22 23 24 23 22 22 22 23 23 23 23 22 22 21 21 21 21 21 21 20 20 20 20 20 20 20 19 19 19 19 19 19 19 19 19 18 18 18 18 17
19 15 16 18 18 19 22 23 22 22 22 23 23 21 21 22 22 23 23 22 22 22 21 21 21 21 20 20 20 20 20 20 20 19 19 19 19 19 19 19 19 19 19 18 18 18 18 17 17
20 15 18 17 19 20 22 22 23 22 22 23 23 21 21 21 22 22 22 22 21 21 21 21 20 20 20 20 20 20 20 19 19 19 19 19 19 19 19 19 19 18 18 18 18 18 18 17 17
20 15 16 18 19 21 21 21 23 23 22 22 22 22 22 22 22 22 21 21 20 20 20 20 20 20 20 20 19 19 19 19 19 19 19 19 19 18 18 18 18 18 18 18 18 18 18 17 17
19 15 18 18 19 21 21 21 22 22 21 21 21 21 21 21 21 21 21 21 20 20 20 20 20 20 20 19 19 19 19 19 19 19 19 19 18 18 18 18 18 18 18 18 18 18 17 17 17
18 17 18 19 21 21 20 21 22 21 21 21 20 20 20 20 21 21 21 21 20 20 20 19 19 19 19 19 19 19 19 19 18 18 18 18 18 18 18 18 18 18 18 18 18 17 17 17 17
18 18 19 21 22 21 21 21 21 21 21 21 21 21 20 20 20 20 20 20 20 20 19 19 19 19 19 19 19 19 19 18 18 18 18 18 18 18 18 18 18 18 18 18 17 17 17 17 17
19 19 21 21 21 20 20 20 20 19 20 20 20 20 20 20 20 20 20 20 20 20 19 19 19 19 18 18 18 18 18 18 18 18 18 18 18 18 18 17 17 17 17 17 17 17 17 17 17
20 20 20 20 20 20 19 19 19 19 19 20 19 19 19 19 19 19 19 19 19 19 19 19 19 18 18 18 18 18 18 18 18 18 18 17 17 18 17 17 17 17 17 17 17 17 17 17 17
20 19 19 19 20 20 20 19 18 18 19 18 18 18 18 18 18 18 19 19 19 19 19 19 18 18 18 18 18 17 17 17 17 17 17 17 17 17 17 17 17 17 17 17 17 16 16 17 17
19 19 19 19 19 20 20 19 18 18 18 17 17 17 17 17 17 17 18 18 18 18 18 18 18 18 17 17 17 17 17 17 17 17 17 16 16 17 16 17 17 16 16 16 16 16 16 16 16
17 18 19 19 18 18 18 18 17 17 17 16 16 16 16 16 16 16 17 17 17 17 17 17 17 17 17 17 17 17 17 16 16 16 16 16 16 16 16 16 16 16 16 16 16 16 16 16 16
19 19 19 18 18 17 17 16 16 16 15 15 14 15 15 15 15 15 16 16 16 16 16 16 16 16 16 16 16 16 16 16 16 16 16 16 16 16 16 16 16 16 15 15 15 15 15 15 15
19 19 18 18 18 17 16 15 15 15 14 14 14 13 14 14 14 14 15 15 15 16 16 16 15 15 16 16 16 16 16 15 15 15 15 15 15 15 15 15 15 15 15 15 15 15 15 15 15
18 18 17 17 18 17 16 15 15 15 14 14 13 13 13 13 14 14 14 15 15 15 15 15 15 15 15 15 15 15 15 15 15 15 15 15 15 15 15 15 15 15 15 15 15 15 15 14 14
18 18 18 18 17 16 16 16 15 14 14 13 13 13 13 13 13 13 14 14 14 14 14 14 14 14 14 15 15 15 14 14 14 14 14 14 14 14 14 14 14 14 14 14 14 14 14 14 14
18 19 18 18 16 15 16 15 15 14 14 13 13 12 12 12 12 12 13 13 13 13 13 14 14 14 14 14 14 14 14 14 14 14 14 14 14 14 14 14 14 14 14 14 14 14 14 14 14
19 19 18 17 16 15 15 15 14 14 14 14 13 12 12 12 12 12 12 12 12 12 13 13 13 13 13 13 14 13 13 13 13 13 13 13 13 13 13 13 13 13 13 13 13 13 13 14 14
19 17 16 14 14 15 16 15 15 13 14 13 12 11 11 11 11 11 11 11 12 12 12 12 12 12 12 12 12 12 12 12 12 12 12 12 12 12 12 13 13 13 13 13 13 13 13 13 13
18 16 16 16 15 15 15 14 14 14 14 13 12 11 10 10 10 10 10 11 11 11 11 11 11 11 11 11 11 11 11 11 11 11 11 11 11 12 12 12 12 12 12 12 12 12 12 12 12
18 17 16 16 16 14 14 14 14 13 13 12 12 11 10 10 10 10 10 10 10 10 10 10 10 10 10 10 10 10 10 11 11 11 11 11 11 11 11 11 11 11 11 12 12 12 12 12 12
18 16 15 14 14 14 14 14 14 12 12 11 10 10 9 9 9 9 9 9 9 9 9 9 9 9 9 10 9 10 10 10 10 10 10 10 10 10 10 10 10 10 11 11 11 11 11 11 11
17 14 13 14 14 15 15 14 13 13 12 11 10 10 9 9 9 8 8 9 8 9 9 9 9 9 9 9 9 9 9 9 9 9 9 9 9 9 9 9 9 10 10 10 10 10 10 10 10
17 16 13 12 13 14 14 14 14 13 12 11 10 9 9 9 8 8 8 8 8 8 8 8 8 8 8 8 8 8 8 8 8 8 8 8 8 8 8 8 8 9 9 9 9 9 9 9 9
17 16 14 15 14 13 13 13 13 12 11 11 10 9 9 8 8 8 8 8 8 8 8 8 8 8 8 8 8 8 7 8 7 7 7 7 7 8 8 8 8 8 8 8 8 8 8 8 8
Wind_Speed
4 1 3 4 5 4 4 6 4 5 5 3 1 3 6 6 5 4 2 12 16 17 19 22 23 22 21 20 20 20 20 20 21 21 21 20 20 19 18 17 16 15 15 14 14 14 14 15 16
1 2 4 5 5 0 6 6 5 5 4 5 2 2 3 2 1 5 5 11 17 17 18 20 23 22 21 20 20 20 20 20 20 19 19 19 19 18 18 17 16 15 14 14 14 14 14 14 15
0 3 5 5 5 6 6 5 5 6 6 3 1 2 1 1 2 5 6 15 16 14 17 20 23 22 21 21 20 20 20 19 19 18 18 18 17 17 17 16 15 14 14 14 14 14 13 14 14
3 5 5 4 5 6 6 8 6 8 6 2 1 2 2 4 1 5 12 15 16 14 16 20 23 22 21 20 20 20 20 19 18 18 17 17 16 16 15 15 14 14 13 13 13 13 13 13 13
4 5 4 1 6 6 7 8 7 5 4 1 2 1 2 6 7 12 14 14 15 12 12 18 21 21 20 19 19 19 19 18 18 17 16 16 15 15 14 14 13 13 13 12 12 12 12 12 11
5 5 4 3 7 7 6 5 4 4 3 1 2 3 2 4 7 10 11 11 12 12 11 15 19 20 20 19 18 18 18 17 17 16 16 15 14 14 13 13 12 12 12 12 12 11 11 10 9
5 5 5 4 4 6 5 3 2 2 2 1 2 5 1 3 7 10 10 10 9 9 9 10 14 16 17 17 17 17 17 17 16 16 15 14 13 13 12 12 11 11 11 11 11 11 10 9 8
6 5 3 2 3 5 5 5 2 2 2 2 3 6 4 5 10 12 11 10 9 8 8 7 9 12 13 13 15 16 16 16 15 15 14 14 13 13 12 11 11 11 10 10 10 10 9 8 7
4 5 2 5 5 5 4 5 5 2 3 4 4 2 5 14 14 12 11 9 8 7 6 7 7 8 11 11 13 14 14 15 15 14 14 13 11 11 11 11 11 11 11 10 10 10 9 7 6
5 4 7 6 5 4 5 3 3 4 5 5 6 7 12 14 13 12 11 10 9 9 7 5 6 6 8 9 9 9 10 10 11 10 11 11 9 9 9 10 12 12 11 10 9 9 8 7 5
5 7 6 6 6 4 3 3 2 2 3 1 5 9 11 12 10 10 10 9 8 8 6 5 5 5 5 4 6 6 6 7 8 9 9 9 8 7 7 7 9 9 9 8 8 7 6 6 5
4 6 5 5 3 2 2 1 2 2 1 3 6 10 10 10 9 9 9 8 7 7 7 5 5 4 4 4 4 5 5 5 5 7 8 8 5 5 5 5 5 5 6 5 5 4 5 6 5
4 5 4 5 3 2 2 1 3 2 4 8 10 10 9 8 6 4 5 6 6 5 5 5 5 5 4 3 2 3 4 5 6 7 8 8 6 5 5 4 5 5 5 5 5 5 5 4 5
4 4 5 4 2 1 4 2 4 1 6 10 9 8 7 6 5 5 4 4 4 3 3 3 3 3 3 3 3 2 3 4 5 6 8 9 7 5 5 4 4 5 6 6 5 5 4 3 4
2 3 6 3 2 1 5 4 2 3 7 9 8 7 7 6 5 4 2 2 2 3 3 2 3 3 2 2 2 2 2 3 3 4 5 7 7 6 5 4 4 4 6 5 5 4 4 3 3
3 4 4 5 4 1 5 1 1 3 8 9 7 7 6 6 5 5 4 4 3 2 2 1 2 3 2 2 1 1 2 2 3 4 4 5 5 6 5 4 4 5 5 5 4 4 3 3 3
6 3 3 5 5 3 5 3 2 3 8 8 7 6 6 6 6 6 6 5 3 2 2 2 2 2 2 2 1 1 2 2 2 2 2 3 4 5 4 3 3 5 4 4 5 4 4 4 5
1 2 3 4 4 6 5 4 4 4 7 8 7 7 6 5 5 6 6 6 5 4 3 3 2 2 2 2 2 2 2 2 2 2 1 1 1 2 3 3 3 3 4 4 4 4 4 4 5
3 2 4 4 1 4 6 6 4 4 6 7 7 6 6 5 5 7 7 7 7 7 6 5 4 3 2 1 1 1 1 1 1 1 2 2 1 1 2 2 3 4 4 4 5 4 5 4 5
4 3 3 2 3 5 6 6 4 4 5 5 6 6 5 5 6 7 7 8 8 7 6 5 4 4 3 2 1 1 1 1 1 2 3 3 3 1 2 2 3 3 3 4 5 5 4 4 5
4 6 5 3 4 6 6 3 2 3 5 7 6 5 5 5 5 6 7 7 7 7 7 5 5 4 4 3 2 2 2 1 2 2 2 3 3 3 2 1 1 2 3 3 5 6 6 5 4
3 6 6 5 5 1 3 2 2 2 3 5 5 5 4 4 5 5 7 7 7 7 6 7 6 6 5 4 3 2 1 1 1 1 1 3 4 4 4 2 1 1 1 2 3 4 4 6 6
4 3 4 4 5 3 3 3 4 2 4 4 5 5 4 4 5 5 6 6 6 7 7 7 7 8 7 6 5 3 2 2 2 3 4 4 4 5 5 5 3 2 1 1 1 2 3 4 5
5 7 7 6 5 2 1 3 4 4 5 6 6 6 5 5 6 6 6 6 7 8 8 8 8 8 8 7 6 5 4 5 5 5 5 4 4 4 7 7 5 4 3 3 1 0 2 2 3
5 6 4 5 4 3 2 2 6 3 3 6 8 7 6 5 5 5 7 7 8 9 9 8 8 8 8 8 8 7 7 6 6 5 5 5 5 5 6 6 5 4 4 4 3 3 2 2 3
2 7 7 4 4 4 2 4 4 1 4 6 8 8 7 6 5 6 6 6 7 8 8 8 8 7 7 8 7 7 7 6 6 6 6 6 5 5 5 6 6 6 6 5 5 4 3 4 5
5 3 5 6 3 0 4 4 2 5 6 7 8 7 7 6 5 5 6 6 7 7 7 7 7 7 8 8 7 8 8 8 7 7 7 6 5 5 7 6 6 7 7 7 6 6 6 6 6
4 8 6 5 4 3 4 4 5 7 9 9 8 8 7 6 6 5 5 6 6 6 7 8 8 8 7 7 7 7 8 8 8 8 8 8 7 7 7 8 8 8 9 8 8 7 7 9 7
3 4 5 4 4 5 3 6 4 8 10 11 10 9 9 7 6 5 5 5 5 6 7 7 8 8 7 8 8 8 8 8 8 8 8 8 8 8 8 8 8 9 9 9 9 9 9 10 9
2 4 6 4 3 4 4 7 2 4 7 10 10 10 9 8 7 6 5 5 6 7 7 7 7 8 7 7 8 8 8 8 9 9 8 8 9 8 9 9 9 10 10 9 10 10 10 10 9
Wind_Direction
304 344 96 67 55 49 260 253 248 290 301 300 224 181 164 165 172 199 124 139 134 141 148 149 149 146 142 137 133 130 128 126 127 128 130 131 133 134 136 137 138 137 135 134 132 130 129 129 129
300 97 67 65 93 235 266 248 249 256 276 317 332 94 119 181 135 120 125 140 137 140 145 149 150 147 143 140 136 134 133 132 131 131 133 134 135 137 138 139 139 138 136 135 134 132 132 132 133
207 64 89 84 137 193 244 243 245 288 289 290 330 39 133 205 138 152 143 137 133 138 144 151 150 148 145 143 140 138 137 136 136 136 137 138 139 139 140 141 141 140 138 137 136 134 134 135 136
91 57 61 91 222 228 233 263 280 304 315 286 104 41 40 7 101 132 129 133 133 138 144 152 151 148 147 147 146 144 143 142 142 142 143 143 143 142 143 144 143 143 141 139 138 138 138 139 139
61 82 79 0 256 253 247 264 272 275 282 302 98 104 19 7 73 112 127 132 134 135 142 152 151 150 148 150 151 150 149 148 147 148 148 148 147 147 147 148 148 147 146 145 144 143 142 142 142
60 74 102 237 268 274 268 261 285 271 253 317 126 123 37 36 91 114 120 123 129 135 138 150 154 153 152 154 156 155 154 153 153 153 153 153 152 152 152 154 155 155 154 153 151 149 147 146 145
107 105 155 211 275 290 284 303 304 297 333 321 137 124 81 71 98 106 104 105 113 126 131 141 153 156 157 158 160 160 160 160 160 160 159 160 159 159 161 162 163 163 161 161 160 158 156 154 150
122 108 133 228 248 276 295 332 322 351 316 358 103 138 172 142 115 103 99 101 110 120 130 137 147 151 154 160 166 166 166 166 166 166 167 168 169 170 172 172 173 173 172 172 170 168 166 163 160
90 81 189 223 215 265 312 350 338 351 53 45 41 98 133 128 120 113 111 113 123 131 136 147 148 147 151 159 171 172 171 172 172 174 175 175 176 177 180 182 183 184 184 184 181 177 174 172 171
95 146 224 220 209 249 311 330 318 11 39 51 57 72 113 126 129 130 137 144 149 155 157 151 152 152 153 164 169 169 171 172 172 175 177 175 176 184 187 192 194 194 193 192 190 187 182 174 171
155 193 232 242 228 236 284 311 350 84 42 115 134 131 129 130 134 140 145 151 156 153 153 151 157 158 159 159 158 164 164 168 172 176 178 174 174 185 190 192 204 203 199 196 197 192 179 171 176
185 240 233 258 218 198 214 268 22 62 159 117 123 132 133 136 144 151 154 152 147 143 149 153 149 152 159 157 157 161 165 170 175 177 179 174 175 184 188 189 193 196 196 190 190 189 184 180 186
211 261 258 249 259 201 125 105 90 64 88 95 104 113 126 133 132 125 123 131 134 145 159 164 154 155 159 144 157 160 161 166 173 173 182 183 183 187 190 195 194 199 198 192 194 194 189 184 186
237 250 279 283 244 174 130 84 107 96 100 104 110 117 120 120 116 108 113 127 141 150 156 146 151 145 136 140 150 155 166 168 168 179 189 187 189 189 189 193 194 201 203 197 196 195 186 183 178
276 315 333 340 28 167 117 45 80 132 111 108 107 104 94 79 74 82 98 122 143 145 142 149 156 135 137 145 149 147 160 169 169 181 193 195 195 195 194 193 197 204 200 191 189 192 184 179 173
29 36 353 324 10 17 107 110 52 106 113 111 110 105 93 72 57 45 41 36 47 91 110 117 150 137 143 134 139 147 131 147 167 177 186 201 206 206 199 195 202 203 196 193 195 189 183 175 157
31 30 329 325 8 48 88 132 67 103 111 113 115 107 93 72 46 31 34 37 45 71 85 81 68 123 156 133 118 100 112 114 129 149 155 199 210 207 203 204 201 194 202 201 201 191 178 168 153
300 341 320 311 345 56 85 108 80 89 110 114 107 95 82 68 38 24 27 35 42 48 59 62 46 29 44 81 71 71 84 96 102 111 117 169 204 203 205 210 198 196 207 205 193 181 169 161 151
184 222 279 282 269 82 99 100 79 88 97 100 97 91 80 59 37 31 24 31 41 40 40 36 31 19 32 56 62 75 71 55 79 82 70 81 115 178 207 212 196 199 210 209 191 174 163 161 145
197 239 264 331 74 110 106 83 72 87 105 114 112 103 90 62 36 32 31 32 35 35 33 33 28 23 25 17 14 74 64 48 51 57 55 58 61 87 156 162 201 196 197 198 194 174 169 170 170
217 200 205 183 72 77 107 60 51 79 95 101 99 98 89 80 55 30 27 26 23 26 25 25 22 32 30 32 49 62 68 47 35 37 32 49 68 59 56 101 175 180 177 194 197 186 179 180 182
249 218 181 155 121 119 125 160 247 145 124 121 115 108 93 74 63 44 32 25 22 19 20 25 29 34 27 36 55 58 72 68 36 37 44 40 51 51 49 50 73 152 165 181 196 189 196 177 176
201 90 116 116 123 92 50 129 257 166 179 169 150 135 112 84 67 51 39 30 26 24 25 23 32 38 29 29 40 51 57 64 54 55 55 47 42 45 47 50 51 48 51 69 154 193 189 180 176
127 74 63 55 76 86 253 157 244 214 199 177 162 145 121 93 70 51 37 32 29 27 29 28 37 37 31 33 36 39 49 62 64 57 47 40 40 41 40 45 42 43 50 52 48 76 153 157 152
82 89 38 7 17 247 271 183 241 227 190 177 167 146 121 99 80 57 41 33 30 29 29 29 38 40 35 39 41 42 47 56 63 58 52 49 42 40 34 43 40 43 49 53 56 58 68 113 125
148 136 154 197 217 261 310 233 253 121 111 122 131 130 121 103 82 66 51 40 35 32 31 32 36 40 38 40 41 43 47 55 56 55 57 52 45 40 38 46 48 51 56 59 63 66 69 87 96
125 117 150 131 133 169 275 274 288 131 128 127 132 132 125 109 92 76 58 45 40 33 30 32 43 44 42 43 46 49 48 53 55 54 54 53 45 47 44 50 57 56 56 57 63 68 67 72 77
111 138 97 115 149 239 279 261 234 197 183 168 161 153 137 117 98 82 65 51 45 40 36 38 45 48 47 49 53 59 54 53 54 56 54 51 48 48 49 49 53 58 58 60 66 69 70 73 67
77 83 96 107 148 161 245 266 223 201 183 176 168 154 143 128 114 98 76 59 52 47 46 46 46 48 50 52 55 58 55 54 56 57 53 52 52 50 52 53 56 59 59 60 65 66 68 73 69
154 156 148 150 208 177 190 264 306 180 164 156 151 145 137 128 121 108 92 72 59 52 49 49 49 51 51 55 60 59 58 58 58 55 51 53 55 52 53 56 58 59 61 61 67 69 66 68 67
Height
1505 1506 1508 1510 1514 1526 1526 1515 1507 1501 1497 1494 1493 1494 1495 1497 1502 1505 1498 1498 1502 1505 1509 1513 1517 1521 1524 1527 1530 1532 1535 1537 1540 1542 1544 1546 1548 1550 1551 1553 1555 1556 1557 1558 1560 1561 1562 1563 1564
1503 1505 1508 1509 1521 1533 1526 1511 1505 1499 1496 1494 1493 1493 1494 1495 1495 1496 1496 1499 1503 1506 1510 1514 1518 1521 1525 1528 1531 1533 1536 1538 1541 1543 1545 1547 1549 1551 1552 1554 1555 1557 1558 1559 1560 1561 1562 1563 1564
1502 1504 1507 1512 1523 1528 1518 1505 1501 1496 1495 1494 1493 1493 1495 1495 1495 1496 1497 1500 1504 1508 1512 1515 1519 1522 1526 1529 1532 1535 1537 1539 1542 1544 1546 1548 1550 1552 1553 1555 1556 1557 1559 1560 1561 1562 1563 1564 1565
1502 1505 1507 1516 1519 1515 1508 1500 1497 1495 1493 1493 1493 1495 1496 1497 1497 1497 1499 1502 1505 1509 1513 1516 1520 1523 1527 1530 1533 1536 1538 1540 1542 1545 1547 1549 1551 1552 1554 1555 1557 1558 1559 1560 1561 1562 1563 1565 1566
1502 1503 1512 1521 1516 1508 1501 1497 1495 1494 1493 1492 1493 1495 1496 1498 1498 1499 1501 1504 1507 1510 1514 1518 1521 1524 1528 1531 1534 1536 1539 1541 1543 1545 1548 1550 1551 1553 1554 1556 1557 1558 1559 1560 1561 1563 1564 1565 1566
1501 1504 1520 1523 1514 1504 1498 1495 1494 1492 1491 1491 1493 1495 1497 1499 1499 1501 1503 1506 1509 1512 1515 1518 1522 1525 1528 1531 1534 1537 1539 1541 1544 1546 1548 1550 1552 1553 1555 1556 1557 1558 1559 1561 1562 1563 1564 1566 1567
1501 1509 1517 1515 1512 1505 1497 1494 1493 1492 1491 1492 1493 1495 1498 1499 1500 1502 1505 1507 1510 1513 1516 1519 1522 1525 1529 1532 1534 1537 1540 1542 1544 1546 1548 1549 1551 1553 1554 1556 1557 1558 1559 1561 1562 1563 1564 1566 1567
1500 1507 1512 1514 1510 1504 1495 1493 1493 1492 1491 1492 1493 1494 1497 1499 1501 1503 1506 1509 1512 1514 1517 1520 1523 1525 1528 1532 1534 1537 1539 1541 1544 1545 1547 1549 1550 1552 1553 1555 1556 1558 1559 1560 1562 1563 1564 1566 1567
1500 1511 1516 1510 1506 1501 1495 1494 1493 1493 1492 1492 1493 1494 1496 1498 1501 1504 1506 1509 1512 1515 1518 1520 1522 1525 1528 1531 1533 1536 1538 1540 1543 1544 1546 1548 1549 1551 1552 1554 1555 1557 1558 1560 1561 1562 1564 1565 1566
1500 1512 1507 1501 1499 1497 1495 1495 1495 1494 1493 1494 1494 1495 1497 1499 1502 1504 1506 1509 1511 1514 1517 1520 1522 1525 1527 1530 1532 1534 1537 1539 1541 1543 1545 1547 1548 1550 1551 1553 1554 1556 1557 1558 1560 1561 1563 1564 1565
1498 1503 1498 1496 1495 1495 1495 1494 1495 1495 1496 1496 1496 1497 1498 1500 1503 1505 1507 1509 1511 1513 1516 1518 1521 1524 1526 1528 1530 1532 1535 1537 1539 1541 1543 1545 1547 1548 1550 1551 1553 1554 1555 1557 1559 1560 1561 1563 1564
1498 1496 1495 1493 1492 1493 1493 1494 1495 1496 1497 1497 1497 1498 1499 1502 1503 1505 1507 1509 1512 1514 1515 1517 1520 1522 1525 1527 1529 1530 1533 1535 1537 1539 1541 1543 1544 1546 1548 1549 1551 1552 1554 1555 1557 1558 1560 1561 1563
1496 1494 1492 1490 1490 1491 1492 1494 1496 1497 1497 1498 1499 1500 1501 1503 1505 1507 1509 1511 1512 1514 1515 1517 1518 1520 1523 1525 1527 1529 1530 1532 1534 1536 1538 1540 1542 1544 1545 1547 1549 1550 1552 1553 1555 1556 1558 1559 1561
1493 1492 1490 1489 1489 1490 1491 1494 1496 1498 1498 1498 1500 1501 1503 1504 1506 1508 1509 1510 1512 1513 1515 1516 1517 1519 1521 1523 1525 1527 1528 1530 1531 1533 1535 1537 1539 1541 1542 1544 1546 1547 1549 1551 1552 1553 1555 1557 1558
1492 1492 1491 1489 1488 1490 1491 1498 1499 1499 1500 1500 1501 1503 1504 1506 1507 1509 1510 1511 1512 1513 1514 1515 1516 1518 1519 1521 1523 1524 1526 1527 1528 1530 1531 1534 1536 1538 1539 1541 1542 1544 1546 1548 1549 1550 1552 1553 1555
1491 1496 1500 1493 1491 1491 1495 1506 1502 1501 1501 1502 1503 1504 1505 1507 1508 1510 1511 1512 1513 1513 1514 1515 1516 1517 1518 1519 1521 1521 1522 1523 1525 1526 1528 1530 1532 1534 1536 1538 1539 1541 1543 1544 1546 1547 1548 1550 1551
1501 1505 1503 1498 1493 1493 1497 1505 1503 1502 1502 1503 1505 1506 1507 1508 1509 1510 1511 1511 1512 1513 1514 1514 1514 1515 1517 1518 1519 1520 1520 1521 1522 1524 1524 1526 1528 1530 1532 1534 1536 1538 1539 1541 1542 1543 1544 1546 1548
1505 1504 1503 1503 1497 1496 1501 1505 1504 1504 1503 1505 1506 1508 1509 1510 1510 1511 1511 1511 1512 1512 1512 1513 1514 1515 1516 1516 1517 1518 1518 1519 1520 1521 1522 1523 1525 1526 1528 1530 1532 1534 1535 1537 1538 1539 1540 1542 1544
1498 1501 1505 1501 1496 1500 1505 1507 1507 1506 1506 1507 1509 1510 1511 1512 1512 1512 1512 1511 1511 1511 1511 1512 1512 1513 1514 1514 1515 1516 1516 1517 1517 1518 1519 1520 1521 1523 1525 1527 1528 1529 1531 1532 1533 1535 1536 1538 1541
1498 1502 1503 1501 1497 1501 1507 1510 1509 1508 1509 1510 1511 1512 1512 1513 1513 1513 1512 1512 1511 1511 1511 1511 1511 1512 1512 1513 1513 1514 1514 1515 1515 1515 1515 1516 1517 1519 1521 1522 1523 1525 1526 1528 1529 1531 1532 1534 1536
1496 1499 1499 1500 1500 1503 1507 1514 1512 1511 1511 1512 1513 1513 1514 1514 1514 1513 1513 1512 1512 1511 1511 1510 1511 1511 1511 1511 1512 1512 1513 1513 1513 1513 1513 1514 1515 1516 1517 1518 1520 1521 1522 1524 1525 1527 1528 1530 1532
1495 1488 1491 1495 1505 1514 1511 1523 1515 1513 1513 1513 1514 1514 1514 1515 1515 1514 1513 1513 1512 1511 1511 1510 1510 1510 1510 1510 1510 1511 1511 1511 1511 1512 1512 1512 1513 1513 1514 1516 1516 1518 1519 1520 1522 1523 1524 1526 1528
1487 1485 1490 1496 1505 1514 1515 1522 1520 1513 1513 1513 1514 1515 1515 1515 1515 1515 1514 1513 1513 1512 1511 1511 1510 1509 1509 1508 1509 1509 1509 1509 1510 1510 1510 1511 1511 1511 1512 1513 1514 1515 1516 1517 1519 1520 1521 1522 1524
1483 1490 1496 1505 1511 1521 1516 1520 1520 1514 1511 1511 1513 1514 1515 1515 1515 1515 1515 1514 1513 1513 1512 1511 1510 1509 1509 1508 1508 1509 1509 1508 1509 1509 1509 1509 1510 1510 1511 1512 1512 1514 1514 1515 1516 1517 1517 1519 1521
1486 1500 1516 1518 1526 1524 1516 1518 1517 1508 1507 1508 1511 1513 1515 1516 1516 1516 1516 1515 1514 1513 1512 1511 1511 1510 1509 1508 1508 1509 1508 1508 1508 1509 1509 1509 1509 1509 1510 1511 1512 1512 1513 1513 1514 1514 1515 1516 1518
1489 1496 1516 1524 1526 1524 1517 1518 1512 1506 1506 1507 1510 1513 1515 1516 1516 1517 1517 1516 1515 1514 1513 1512 1511 1511 1510 1510 1509 1510 1509 1509 1509 1509 1509 1510 1510 1510 1511 1511 1512 1512 1512 1513 1513 1513 1514 1515 1517
1490 1497 1499 1514 1519 1525 1521 1513 1507 1506 1507 1509 1511 1513 1515 1516 1517 1517 1517 1517 1516 1515 1514 1513 1512 1512 1512 1511 1511 1511 1511 1511 1511 1510 1511 1511 1511 1512 1512 1512 1512 1512 1512 1513 1513 1513 1513 1515 1517
1486 1495 1506 1515 1524 1526 1518 1515 1511 1505 1506 1508 1510 1513 1515 1516 1517 1518 1518 1518 1517 1516 1515 1515 1514 1514 1513 1513 1512 1512 1513 1513 1512 1512 1513 1513 1513 1513 1513 1513 1512 1512 1513 1513 1513 1513 1514 1515 1516
1490 1496 1505 1515 1516 1524 1525 1517 1497 1497 1499 1503 1508 1511 1513 1516 1517 1518 1519 1519 1518 1518 1517 1516 1516 1516 1515 1515 1515 1514 1514 1515 1515 1515 1515 1515 1515 1515 1515 1514 1514 1514 1514 1514 1515 1515 1516 1517 1518
1487 1491 1501 1509 1513 1518 1521 1515 1494 1494 1496 1500 1506 1510 1513 1516 1518 1519 1519 1519 1519 1519 1518 1518 1518 1518 1517 1517 1517 1517 1517 1517 1517 1517 1517 1517 1517 1517 1517 1517 1517 1516 1516 1517 1517 1517 1518 1519 1520